Location: Mapua
(41.2500°S, 173.1000°E)
Time: 13:36:46
(UTC+12:00)

Hubble Space Telescope - Visible Passes

Search period start: 18 May 2021 00:00
Search period end: 28 May 2021 00:00
Orbit: 535 x 539 km, 28.5° (Epoch: 16 May)

Date Brightness Start Highest point End Pass type
(mag) Time Alt. Az. Time Alt. Az. Time Alt. Az.
19 May 3.4 18:12:24 10° N 18:13:15 10° NNE 18:14:05 10° NNE visible
19 May 3.5 19:51:24 10° NNW 19:52:07 12° NNW 19:52:07 12° NNW visible
20 May 3.3 18:00:41 10° N 18:02:10 12° N 18:03:40 10° NNE visible
20 May 3.3 19:40:23 10° NW 19:41:49 13° NNW 19:41:49 13° NNW visible
21 May 3.3 17:49:16 10° NNW 17:51:06 13° N 17:52:56 10° NE visible
21 May 3.2 19:29:26 10° NW 19:31:29 13° N 19:31:33 13° N visible
22 May 3.3 17:38:00 10° NNW 17:40:02 13° N 17:42:05 10° NE visible
22 May 3.3 19:18:35 10° NW 19:20:25 13° N 19:21:20 12° N visible
23 May 3.4 19:07:52 10° NNW 19:09:21 12° N 19:10:50 10° N visible
24 May 3.6 18:57:29 10° NNW 18:58:16 10° NNW 18:59:04 10° N visible
